JZR320 OBBI-OKKK

Flight info

Callsign JZR320
Flight time 0h 55m
Altitude 26000
Route BHR A453 DEBTI
Aircraft A20N/M-SDE2E3FGHIRWXY/LB1

Departure

Time 2026-04-27 15:29
Airport Bahrain International Airport (OBBI)

Arrival

Time 2026-04-27 16:24
Airport Kuwait International Airport (OKKK)
Time Latitude Longitude Altitude Speed Heading
2026-04-27 14:50 26.26684 50.63319 20 ft 0 kts 213°
2026-04-27 15:15 26.26688 50.63322 20 ft 1 kts 213°
2026-04-27 15:16 26.26694 50.63326 20 ft 1 kts 213°
2026-04-27 15:16 26.26700 50.63330 23 ft 1 kts 213°
2026-04-27 15:16 26.26709 50.63337 22 ft 2 kts 213°
2026-04-27 15:16 26.26719 50.63344 23 ft 2 kts 213°
2026-04-27 15:17 26.26730 50.63352 22 ft 2 kts 213°
2026-04-27 15:17 26.26740 50.63359 23 ft 2 kts 223°
2026-04-27 15:17 26.26747 50.63370 22 ft 2 kts 261°
2026-04-27 15:17 26.26747 50.63384 23 ft 2 kts 298°
2026-04-27 15:18 26.26740 50.63396 23 ft 2 kts 301°
2026-04-27 15:18 26.26740 50.63397 23 ft 0 kts 301°
2026-04-27 15:19 26.26740 50.63396 23 ft 1 kts 301°
2026-04-27 15:19 26.26778 50.63358 20 ft 9 kts 355°
2026-04-27 15:19 26.26848 50.63388 19 ft 11 kts 352°
2026-04-27 15:20 26.26903 50.63322 19 ft 13 kts 304°
2026-04-27 15:20 26.26957 50.63227 19 ft 16 kts 302°
2026-04-27 15:20 26.27026 50.63107 21 ft 21 kts 302°
2026-04-27 15:20 26.27116 50.62955 24 ft 26 kts 304°
2026-04-27 15:21 26.27195 50.62834 21 ft 18 kts 302°
2026-04-27 15:21 26.27272 50.62702 18 ft 23 kts 302°
2026-04-27 15:21 26.27354 50.62559 17 ft 18 kts 302°
2026-04-27 15:21 26.27419 50.62444 16 ft 18 kts 302°
2026-04-27 15:22 26.27493 50.62317 16 ft 21 kts 303°
2026-04-27 15:22 26.27573 50.62176 16 ft 22 kts 304°
2026-04-27 15:22 26.27657 50.62032 16 ft 23 kts 303°
2026-04-27 15:22 26.27742 50.61884 18 ft 19 kts 302°
2026-04-27 15:23 26.27816 50.61759 17 ft 20 kts 302°
2026-04-27 15:23 26.27889 50.61656 17 ft 8 kts 324°
2026-04-27 15:23 26.27927 50.61645 17 ft 3 kts 359°
2026-04-27 15:23 26.27933 50.61645 17 ft 0 kts
2026-04-27 15:25 26.27954 50.61647 17 ft 6 kts
2026-04-27 15:25 26.28006 50.61682 18 ft 12 kts 33°
2026-04-27 15:25 26.28041 50.61714 18 ft 1 kts 65°
2026-04-27 15:26 26.28031 50.61741 18 ft 0 kts 128°
2026-04-27 15:26 26.28000 50.61773 18 ft 6 kts 127°
2026-04-27 15:26 26.27999 50.61776 18 ft 0 kts 124°
2026-04-27 15:28 26.27991 50.61789 18 ft 18 kts 124°
2026-04-27 15:28 26.27744 50.62218 17 ft 111 kts 122°
2026-04-27 15:28 26.27196 50.63176 114 ft 170 kts 122°
2026-04-27 15:29 26.26564 50.64300 928 ft 175 kts 121°
2026-04-27 15:29 26.26116 50.65551 1855 ft 174 kts 92°
2026-04-27 15:29 26.26314 50.66878 2558 ft 179 kts 69°
2026-04-27 15:29 26.26558 50.68345 3011 ft 205 kts 78°
2026-04-27 15:30 26.26813 50.69992 3516 ft 226 kts 77°
2026-04-27 15:30 26.27103 50.71827 3844 ft 259 kts 78°
2026-04-27 15:30 26.27438 50.73881 3990 ft 274 kts 77°
2026-04-27 15:30 26.27801 50.75972 4087 ft 276 kts 77°
2026-04-27 15:31 26.28156 50.78078 4068 ft 278 kts 78°
2026-04-27 15:31 26.28504 50.80189 4071 ft 278 kts 77°
2026-04-27 15:31 26.29232 50.82157 4373 ft 276 kts 50°
2026-04-27 15:31 26.30708 50.83499 5142 ft 275 kts 22°
2026-04-27 15:32 26.32578 50.83972 5850 ft 283 kts 356°
2026-04-27 15:32 26.34479 50.83458 6632 ft 282 kts 329°
2026-04-27 15:32 26.35955 50.82067 7563 ft 277 kts 307°
2026-04-27 15:32 26.37088 50.80334 8553 ft 276 kts 303°
2026-04-27 15:33 26.38170 50.78572 9525 ft 276 kts 303°
2026-04-27 15:33 26.39276 50.76815 10429 ft 278 kts 303°
2026-04-27 15:33 26.40427 50.75057 11186 ft 284 kts 304°
2026-04-27 15:33 26.41627 50.73273 11963 ft 290 kts 304°
2026-04-27 15:34 26.42842 50.71491 12749 ft 295 kts 303°
2026-04-27 15:34 26.44114 50.69633 13550 ft 300 kts 303°
2026-04-27 15:34 26.45388 50.67772 14270 ft 304 kts 303°
2026-04-27 15:34 26.46658 50.65915 15045 ft 305 kts 303°
2026-04-27 15:35 26.47950 50.64021 15583 ft 308 kts 304°
2026-04-27 15:35 26.49252 50.62109 15782 ft 309 kts 304°
2026-04-27 15:35 26.50553 50.60202 15866 ft 309 kts 304°
2026-04-27 15:35 26.51855 50.58290 15870 ft 309 kts 304°
2026-04-27 15:36 26.53175 50.56388 15868 ft 310 kts 308°
2026-04-27 15:36 26.54788 50.54768 15950 ft 315 kts 322°
2026-04-27 15:36 26.56748 50.53625 16461 ft 323 kts 335°
2026-04-27 15:36 26.58886 50.52834 17316 ft 323 kts 337°
2026-04-27 15:37 26.61023 50.52031 18069 ft 325 kts 336°
2026-04-27 15:37 26.63182 50.51212 18590 ft 330 kts 336°
2026-04-27 15:37 26.65356 50.50388 18794 ft 331 kts 336°
2026-04-27 15:37 26.67538 50.49564 18874 ft 331 kts 335°
2026-04-27 15:38 26.69684 50.48654 18883 ft 329 kts 333°
2026-04-27 15:38 26.71809 50.47697 18884 ft 329 kts 333°
2026-04-27 15:38 26.73931 50.46740 18883 ft 329 kts 333°
2026-04-27 15:38 26.76116 50.45954 18892 ft 335 kts 346°
2026-04-27 15:39 26.78479 50.46065 18886 ft 350 kts
2026-04-27 15:39 26.80820 50.46907 18888 ft 355 kts 13°
2026-04-27 15:39 26.83152 50.47819 18889 ft 354 kts 13°
2026-04-27 15:39 26.85480 50.48731 18895 ft 354 kts 13°
2026-04-27 15:40 26.87807 50.49642 18902 ft 354 kts 13°
2026-04-27 15:40 26.90175 50.50249 18991 ft 346 kts 355°
2026-04-27 15:40 26.92500 50.49834 19545 ft 334 kts 334°
2026-04-27 15:40 26.94503 50.48596 20098 ft 329 kts 315°
2026-04-27 15:41 26.95564 50.47370 20203 ft 335 kts 303°
2026-04-27 15:41 26.96616 50.45023 20477 ft 342 kts 285°
2026-04-27 15:41 26.97169 50.42421 21118 ft 342 kts 281°
2026-04-27 15:41 26.97805 50.38949 21991 ft 344 kts 281°
2026-04-27 15:42 26.98174 50.37181 22446 ft 345 kts 282°
2026-04-27 15:42 26.98993 50.33718 23280 ft 348 kts 284°
2026-04-27 15:42 26.99442 50.31954 23670 ft 349 kts 284°
2026-04-27 15:42 27.00130 50.29327 24162 ft 353 kts 284°
2026-04-27 15:43 27.00840 50.26644 24306 ft 366 kts 284°
2026-04-27 15:43 27.01569 50.23891 24430 ft 379 kts 284°
2026-04-27 15:43 27.02335 50.21001 24804 ft 383 kts 284°
2026-04-27 15:43 27.03085 50.18167 25275 ft 385 kts 284°
2026-04-27 15:44 27.03916 50.15289 25663 ft 391 kts 288°
2026-04-27 15:44 27.05072 50.12435 25863 ft 403 kts 294°
2026-04-27 15:44 27.06538 50.09769 25907 ft 411 kts 301°
2026-04-27 15:44 27.08356 50.07233 25922 ft 413 kts 306°
2026-04-27 15:45 27.10215 50.04823 25910 ft 412 kts 305°
2026-04-27 15:45 27.12078 50.02383 25909 ft 412 kts 305°
2026-04-27 15:45 27.13943 49.99932 25909 ft 412 kts 305°
2026-04-27 15:45 27.15802 49.97484 25909 ft 412 kts 305°
2026-04-27 15:46 27.17659 49.95036 25908 ft 413 kts 305°
2026-04-27 15:46 27.19523 49.92581 25908 ft 413 kts 305°
2026-04-27 15:46 27.21386 49.90124 25909 ft 413 kts 305°
2026-04-27 15:46 27.23245 49.87673 25907 ft 412 kts 305°
2026-04-27 15:47 27.25105 49.85219 25907 ft 412 kts 305°
2026-04-27 15:47 27.26966 49.82763 25906 ft 412 kts 305°
2026-04-27 15:47 27.28824 49.80309 25908 ft 412 kts 305°
2026-04-27 15:47 27.30682 49.77854 25908 ft 412 kts 305°
2026-04-27 15:48 27.32539 49.75399 25906 ft 412 kts 305°
2026-04-27 15:48 27.34395 49.72943 25902 ft 412 kts 305°
2026-04-27 15:48 27.36248 49.70489 25902 ft 412 kts 305°
2026-04-27 15:49 27.39965 49.65565 25921 ft 412 kts 305°
2026-04-27 15:49 27.41820 49.63106 25920 ft 412 kts 305°
2026-04-27 15:49 27.43676 49.60644 25912 ft 412 kts 305°
2026-04-27 15:49 27.45532 49.58179 25912 ft 412 kts 305°
2026-04-27 15:50 27.47417 49.55738 25916 ft 414 kts 308°
2026-04-27 15:50 27.49513 49.53488 25914 ft 419 kts 313°
2026-04-27 15:50 27.51795 49.51432 25902 ft 420 kts 315°
2026-04-27 15:50 27.54071 49.49406 25909 ft 411 kts 315°
2026-04-27 15:51 27.56262 49.47454 25924 ft 391 kts 315°
2026-04-27 15:51 27.58363 49.45574 25913 ft 385 kts 315°
2026-04-27 15:51 27.60474 49.43667 25914 ft 393 kts 315°
2026-04-27 15:51 27.62613 49.41739 25911 ft 392 kts 315°
2026-04-27 15:52 27.64745 49.39822 25911 ft 391 kts 315°
2026-04-27 15:52 27.66848 49.37933 25911 ft 392 kts 315°
2026-04-27 15:52 27.68976 49.36020 25911 ft 392 kts 315°
2026-04-27 15:52 27.71108 49.34104 25911 ft 392 kts 315°
2026-04-27 15:53 27.73240 49.32187 25909 ft 392 kts 315°
2026-04-27 15:53 27.75373 49.30266 25914 ft 394 kts 315°
2026-04-27 15:53 27.77523 49.28328 25918 ft 395 kts 315°
2026-04-27 15:53 27.79675 49.26388 25928 ft 397 kts 315°
2026-04-27 15:54 27.81837 49.24441 25932 ft 397 kts 315°
2026-04-27 15:54 27.84007 49.22485 25940 ft 398 kts 315°
2026-04-27 15:54 27.86172 49.20532 25946 ft 399 kts 315°
2026-04-27 15:54 27.88454 49.18711 25956 ft 404 kts 321°
2026-04-27 15:55 27.90871 49.17126 25962 ft 406 kts 323°
2026-04-27 15:55 27.92473 49.16083 25959 ft 407 kts 323°
2026-04-27 15:55 27.95720 49.13956 25958 ft 407 kts 323°
2026-04-27 15:55 27.98165 49.12351 25957 ft 407 kts 323°
2026-04-27 15:56 28.00614 49.10742 25957 ft 407 kts 323°
2026-04-27 15:56 28.03061 49.09135 25952 ft 406 kts 323°
2026-04-27 15:56 28.05510 49.07525 25935 ft 406 kts 323°
2026-04-27 15:56 28.07954 49.05919 25932 ft 406 kts 323°
2026-04-27 15:57 28.10394 49.04314 25901 ft 405 kts 323°
2026-04-27 15:57 28.12832 49.02709 25627 ft 407 kts 323°
2026-04-27 15:58 28.14497 49.01611 25295 ft 408 kts 323°
2026-04-27 15:58 28.16944 49.00000 24719 ft 406 kts 323°
2026-04-27 15:58 28.18938 48.98686 24252 ft 403 kts 323°
2026-04-27 15:58 28.21355 48.97093 23695 ft 400 kts 323°
2026-04-27 15:59 28.23752 48.95512 23070 ft 397 kts 323°
2026-04-27 15:59 28.26096 48.93964 22425 ft 393 kts 324°
2026-04-27 15:59 28.28449 48.92409 21787 ft 390 kts 324°
2026-04-27 15:59 28.30779 48.90869 21325 ft 383 kts 324°
2026-04-27 16:00 28.33054 48.89365 20991 ft 375 kts 324°
2026-04-27 16:00 28.34581 48.88354 20778 ft 376 kts 324°
2026-04-27 16:00 28.37576 48.86365 20360 ft 377 kts 324°
2026-04-27 16:00 28.39832 48.84869 20042 ft 371 kts 324°
2026-04-27 16:01 28.42035 48.83412 19729 ft 362 kts 324°
2026-04-27 16:01 28.44183 48.81991 19426 ft 353 kts 324°
2026-04-27 16:01 28.46278 48.80602 19129 ft 344 kts 324°
2026-04-27 16:01 28.48320 48.79248 18808 ft 330 kts 324°
2026-04-27 16:02 28.50261 48.77962 18519 ft 316 kts 324°
2026-04-27 16:02 28.52121 48.76728 18247 ft 302 kts 324°
2026-04-27 16:02 28.53876 48.75563 17944 ft 290 kts 324°
2026-04-27 16:02 28.55584 48.74426 17624 ft 281 kts 324°
2026-04-27 16:03 28.57179 48.73153 17327 ft 281 kts 314°
2026-04-27 16:03 28.58546 48.71575 17061 ft 278 kts 305°
2026-04-27 16:03 28.59696 48.69838 16804 ft 272 kts 303°
2026-04-27 16:03 28.60831 48.68119 16554 ft 272 kts 303°
2026-04-27 16:04 28.61977 48.66398 16311 ft 273 kts 303°
2026-04-27 16:04 28.63121 48.64686 16063 ft 270 kts 303°
2026-04-27 16:04 28.64259 48.62981 15826 ft 269 kts 303°
2026-04-27 16:04 28.65387 48.61286 15579 ft 269 kts 303°
2026-04-27 16:05 28.66515 48.59589 15333 ft 268 kts 303°
2026-04-27 16:05 28.67640 48.57896 15095 ft 267 kts 303°
2026-04-27 16:05 28.68757 48.56215 14919 ft 266 kts 303°
2026-04-27 16:05 28.69874 48.54532 14726 ft 266 kts 303°
2026-04-27 16:06 28.70991 48.52849 14536 ft 266 kts 303°
2026-04-27 16:06 28.72106 48.51169 14347 ft 265 kts 303°
2026-04-27 16:06 28.73303 48.49567 14160 ft 267 kts 312°
2026-04-27 16:06 28.74776 48.48251 13978 ft 272 kts 323°
2026-04-27 16:07 28.76440 48.47214 13812 ft 273 kts 327°
2026-04-27 16:07 28.78110 48.46193 13660 ft 272 kts 326°
2026-04-27 16:07 28.79776 48.45162 13483 ft 272 kts 326°
2026-04-27 16:07 28.81433 48.44132 13298 ft 271 kts 326°
2026-04-27 16:08 28.83086 48.43105 13119 ft 270 kts 326°
2026-04-27 16:08 28.84735 48.42079 12940 ft 270 kts 326°
2026-04-27 16:08 28.86381 48.41056 12763 ft 269 kts 326°
2026-04-27 16:08 28.88025 48.40034 12580 ft 269 kts 326°
2026-04-27 16:09 28.89663 48.39015 12410 ft 268 kts 326°
2026-04-27 16:09 28.92938 48.36977 12059 ft 267 kts 326°
2026-04-27 16:09 28.94568 48.35963 11886 ft 267 kts 326°
2026-04-27 16:10 28.97816 48.33939 11543 ft 266 kts 326°
2026-04-27 16:10 29.01043 48.31928 11201 ft 265 kts 326°
2026-04-27 16:11 29.02658 48.30922 11152 ft 262 kts 326°
2026-04-27 16:11 29.05885 48.28906 11149 ft 265 kts 326°
2026-04-27 16:12 29.09122 48.26885 11134 ft 265 kts 326°
2026-04-27 16:12 29.10744 48.25872 10936 ft 266 kts 326°
2026-04-27 16:12 29.13955 48.23865 10450 ft 262 kts 326°
2026-04-27 16:13 29.15549 48.22868 10188 ft 261 kts 326°
2026-04-27 16:13 29.18753 48.20863 9670 ft 264 kts 326°
2026-04-27 16:13 29.20336 48.19873 9387 ft 261 kts 326°
2026-04-27 16:14 29.23544 48.17863 8828 ft 260 kts 327°
2026-04-27 16:14 29.26688 48.15892 8267 ft 259 kts 327°
2026-04-27 16:15 29.29825 48.13925 7690 ft 257 kts 327°
2026-04-27 16:15 29.32946 48.11962 7071 ft 255 kts 328°
2026-04-27 16:16 29.36057 48.10010 6370 ft 255 kts 328°
2026-04-27 16:16 29.39167 48.08057 5648 ft 255 kts 329°
2026-04-27 16:17 29.41803 48.05515 4917 ft 249 kts 291°
2026-04-27 16:17 29.42290 48.01637 4348 ft 248 kts 274°
2026-04-27 16:18 29.42572 47.97680 3950 ft 250 kts 274°
2026-04-27 16:18 29.42410 47.93738 3569 ft 250 kts 245°
2026-04-27 16:19 29.41692 47.91917 3378 ft 251 kts 244°
2026-04-27 16:19 29.40962 47.90097 3188 ft 251 kts 243°
2026-04-27 16:20 29.36883 47.87426 2668 ft 231 kts 176°
2026-04-27 16:20 29.35322 47.87720 2637 ft 222 kts 161°
2026-04-27 16:20 29.32717 47.88913 2235 ft 183 kts 153°
2026-04-27 16:21 29.31573 47.89520 1988 ft 182 kts 153°
2026-04-27 16:21 29.28273 47.91281 1293 ft 158 kts 154°
2026-04-27 16:22 29.27308 47.91797 1090 ft 148 kts 154°
2026-04-27 16:22 29.25521 47.92760 732 ft 143 kts 154°
2026-04-27 16:22 29.24611 47.93254 526 ft 147 kts 156°
2026-04-27 16:23 29.23687 47.93741 373 ft 145 kts 157°
2026-04-27 16:23 29.21901 47.94683 190 ft 120 kts 155°
2026-04-27 16:23 29.21468 47.94910 186 ft 89 kts 155°
2026-04-27 16:24 29.20888 47.95223 181 ft 59 kts 153°
2026-04-27 16:24 29.20566 47.95523 184 ft 20 kts 124°
2026-04-27 16:25 29.20607 47.95622 192 ft 5 kts 315°
2026-04-27 16:25 29.20711 47.95563 197 ft 14 kts 335°
2026-04-27 16:26 29.20935 47.95445 193 ft 20 kts 336°
2026-04-27 16:26 29.21230 47.95289 182 ft 25 kts 333°
2026-04-27 16:27 29.21546 47.95120 189 ft 26 kts 335°
2026-04-27 16:27 29.21921 47.94947 171 ft 19 kts 17°
2026-04-27 16:28 29.22069 47.95273 161 ft 26 kts 65°
2026-04-27 16:28 29.22237 47.95677 160 ft 30 kts 65°
2026-04-27 16:29 29.22496 47.96312 160 ft 25 kts 64°
2026-04-27 16:30 29.22664 47.96636 168 ft 19 kts
2026-04-27 16:30 29.22917 47.96501 169 ft 17 kts 334°
2026-04-27 16:31 29.23007 47.96494 174 ft 1 kts 53°
2026-04-27 16:31 29.23029 47.96541 181 ft 0 kts 63°
2026-04-27 16:32 29.23046 47.96583 186 ft 17 kts 65°
2026-04-27 16:32 29.23103 47.96734 199 ft 18 kts 66°
2026-04-27 16:33 29.23123 47.96783 182 ft 4 kts 64°
2026-04-27 16:33 29.23137 47.96816 179 ft 0 kts 64°
2026-04-27 16:33 29.23142 47.96829 178 ft 8 kts 64°
2026-04-27 16:33 29.23205 47.96854 176 ft 13 kts 336°
2026-04-27 16:34 29.23297 47.96802 178 ft 16 kts 333°
2026-04-27 16:34 29.23419 47.96732 177 ft 23 kts 336°
2026-04-27 16:34 29.23584 47.96647 171 ft 26 kts 338°
2026-04-27 16:34 29.23667 47.96713 167 ft 8 kts 66°
2026-04-27 16:35 29.23673 47.96729 167 ft 4 kts 65°
2026-04-27 16:35 29.23692 47.96776 167 ft 9 kts 65°
2026-04-27 16:35 29.23762 47.96809 166 ft 7 kts 329°
2026-04-27 16:36 29.23795 47.96791 166 ft 2 kts 334°
2026-04-27 16:36 29.23801 47.96788 166 ft 0 kts 334°